Date String (YYYY-MM-DD hh:mm:ss) UTC,Instrument flags,Ambient pressure (hPa),Sample flow (lpm),Bypass flow (lpm),Sample temperature (°C),Ambient temperature (°C),ASC tube jacket temperature (°C),LED temperature (°C),Box temperature (°C),Sample RH (%),Span deviation,Mass concentration (μg/m³),Mass concentration (μg/m³),Mass concentration (μg/m³)
DateTimeUTC,F1_M11,P_M11,Q1_M11,Q2_M11,T1_M11,T2_M11,T3_M11,T4_M11,T5_M11,U1_M11,ZSPAN_M11,X0_M11,X2_M11,X1_M11
2022-08-05 20:00:00,,0826.2,4.99,0.00,29.2,27.1,00.0,37.9,31.0,30.3,0001.8,0022.82,0008.97,0006.92
2022-08-05 20:01:00,,0826.2,5.00,0.00,29.2,27.2,00.0,37.9,31.0,31.0,0000.0,0022.50,0009.05,0006.91
2022-08-05 20:02:00,,0826.2,4.99,0.00,29.1,27.3,00.0,37.8,30.9,31.0,0000.0,0023.37,0009.14,0006.93
2022-08-05 20:03:00,,0826.2,5.01,0.00,29.1,27.5,00.0,37.9,31.0,29.9,0000.0,0022.57,0009.14,0006.94
2022-08-05 20:04:00,,0826.2,5.00,0.00,29.2,27.7,00.0,37.9,31.1,28.9,0000.0,0022.80,0009.08,0006.92
2022-08-05 20:05:00,,0826.1,5.01,0.00,29.2,27.9,00.0,37.9,31.2,28.9,0000.0,0022.83,0009.02,0006.90
2022-08-05 20:06:00,,0826.2,5.01,0.00,29.3,27.8,00.0,37.9,31.2,28.7,0001.2,0022.34,0009.04,0006.90
2022-08-05 20:07:00,,0826.2,4.99,0.00,29.2,27.3,00.0,37.9,31.1,28.9,0001.2,0022.34,0009.07,0006.91
2022-08-05 20:08:00,,0826.1,5.01,0.00,29.2,27.1,00.0,37.9,31.0,29.0,0000.8,0023.00,0009.07,0006.91
2022-08-05 20:09:00,,0826.2,4.99,0.00,29.1,27.1,00.0,37.9,31.0,28.7,0000.7,0024.64,0009.11,0006.91
2022-08-05 20:10:00,,0826.1,5.01,0.00,29.1,27.3,00.0,37.8,30.9,28.5,0000.8,0025.81,0009.06,0006.89
2022-08-05 20:11:00,,0826.2,4.99,0.00,29.1,27.5,00.0,37.9,31.0,28.8,0000.6,0025.55,0008.99,0006.86
2022-08-05 20:12:00,,0826.2,4.99,0.00,29.2,27.7,00.0,37.9,31.1,28.9,0000.9,0025.08,0008.85,0006.83
2022-08-05 20:13:00,,0826.2,5.01,0.00,29.2,27.9,00.0,37.9,31.2,29.0,0000.9,0023.43,0008.65,0006.76
2022-08-05 20:14:00,,0826.1,5.00,0.00,29.3,28.0,00.0,37.9,31.2,27.7,0000.9,0023.73,0008.51,0006.70
2022-08-05 20:15:00,,0826.1,5.00,0.00,29.3,27.6,00.0,37.9,31.2,27.9,0001.1,0023.27,0008.36,0006.63
2022-08-05 20:16:00,,0826.2,5.00,0.00,29.2,27.1,00.0,37.9,31.0,28.4,0001.2,0023.19,0008.29,0006.59
2022-08-05 20:17:00,,0826.2,5.01,0.00,29.2,27.0,00.0,37.9,31.0,28.1,0001.1,0023.16,0008.25,0006.55
2022-08-05 20:18:00,,0826.1,5.00,0.00,29.1,27.1,00.0,37.8,30.9,27.7,0001.2,0022.84,0008.17,0006.50
2022-08-05 20:19:00,,0826.1,4.99,0.00,29.1,27.3,00.0,37.8,30.9,27.7,0000.9,0021.89,0008.10,0006.44
2022-08-05 20:20:00,,0826.2,5.01,0.00,29.1,27.5,00.0,37.9,31.0,27.6,0001.1,0019.23,0008.04,0006.38
2022-08-05 20:21:00,,0826.1,4.99,0.00,29.2,27.7,00.0,37.9,31.1,27.1,0001.1,0016.95,0007.98,0006.33
2022-08-05 20:22:00,,0826.1,4.99,0.00,29.2,27.9,00.0,37.9,31.2,27.2,0001.1,0016.50,0007.88,0006.26
2022-08-05 20:23:00,,0826.1,5.01,0.00,29.2,27.8,00.0,37.9,31.1,27.1,0001.0,0016.16,0007.78,0006.20
2022-08-05 20:24:00,,0826.1,5.01,0.00,29.2,27.2,00.0,37.9,31.0,27.3,0000.9,0015.73,0007.73,0006.14
2022-08-05 20:25:00,,0826.2,5.00,0.00,29.2,26.9,00.0,37.9,31.0,27.4,0000.7,0014.58,0007.64,0006.08
2022-08-05 20:26:00,,0826.2,5.00,0.00,29.1,26.9,00.0,37.8,30.9,27.7,0000.9,0014.32,0007.57,0006.05
2022-08-05 20:27:00,,0826.2,5.00,0.00,29.1,27.1,00.0,37.8,30.8,28.1,0000.8,0014.59,0007.48,0006.00
2022-08-05 20:28:00,,0826.1,5.01,0.00,29.1,27.3,00.0,37.8,30.9,28.3,0000.6,0014.63,0007.41,0005.94
2022-08-05 20:29:00,,0826.2,5.00,0.00,29.1,27.5,00.0,37.8,31.0,28.7,0000.9,0015.03,0007.32,0005.89
2022-08-05 20:30:00,,0826.2,5.02,0.00,29.1,27.7,00.0,37.8,31.1,29.8,0000.4,0015.10,0007.24,0005.83
2022-08-05 20:31:00,,0826.2,5.00,0.00,29.2,27.9,00.0,37.9,31.1,28.7,0000.0,0014.97,0007.18,0005.79
2022-08-05 20:32:00,,0826.2,5.01,0.00,29.2,27.8,00.0,37.9,31.1,28.0,0000.0,0014.17,0007.08,0005.74
2022-08-05 20:33:00,,0826.2,5.00,0.00,29.2,27.2,00.0,37.9,31.0,28.3,0000.0,0013.53,0007.02,0005.69
2022-08-05 20:34:00,,0826.2,5.01,0.00,29.1,26.9,00.0,37.8,30.9,27.9,0000.0,0013.47,0006.97,0005.65
2022-08-05 20:35:00,,0826.2,5.00,0.00,29.1,26.9,00.0,37.8,30.9,27.8,0000.0,0013.36,0006.89,0005.62
2022-08-05 20:36:00,,0826.2,4.99,0.00,29.0,27.0,00.0,37.8,30.9,27.8,0000.0,0013.43,0006.83,0005.57
2022-08-05 20:37:00,,0826.1,5.01,0.00,29.0,27.2,00.0,37.8,30.9,28.3,0000.0,0013.48,0006.79,0005.53
2022-08-05 20:38:00,,0826.0,4.99,0.00,29.1,27.5,00.0,37.8,31.0,27.6,0000.0,0012.59,0006.74,0005.48
2022-08-05 20:39:00,,0826.0,5.00,0.00,29.1,27.7,00.0,37.8,31.1,26.8,0000.0,0012.35,0006.62,0005.41
2022-08-05 20:40:00,,0826.0,5.00,0.00,29.2,27.9,00.0,37.9,31.2,26.2,0000.0,0011.54,0006.53,0005.33
2022-08-05 20:41:00,,0825.9,5.00,0.00,29.2,27.8,00.0,37.9,31.1,26.7,0000.0,0011.38,0006.41,0005.26
2022-08-05 20:42:00,,0825.9,5.00,0.00,29.2,27.2,00.0,37.8,31.0,27.5,0000.0,0011.71,0006.34,0005.19
2022-08-05 20:43:00,,0825.9,5.01,0.00,29.1,26.9,00.0,37.8,30.9,28.1,0000.0,0011.55,0006.28,0005.15
2022-08-05 20:44:00,,0825.9,4.99,0.00,29.1,26.9,00.0,37.8,30.9,28.1,0000.0,0011.57,0006.23,0005.13
2022-08-05 20:45:00,,0825.8,5.00,0.00,29.0,27.0,00.0,37.8,30.8,27.5,0000.0,0011.62,0006.20,0005.10
2022-08-05 20:46:00,,0825.8,5.00,0.00,29.0,27.2,00.0,37.8,30.9,27.5,0000.0,0011.90,0006.18,0005.07
2022-08-05 20:47:00,,0825.9,5.01,0.00,29.0,27.4,00.0,37.8,30.9,27.3,0000.0,0011.76,0006.19,0005.06
2022-08-05 20:48:00,,0825.9,4.99,0.00,29.1,27.6,00.0,37.8,31.0,27.4,0000.0,0011.56,0006.16,0005.03
2022-08-05 20:49:00,,0825.8,5.00,0.00,29.1,27.8,00.0,37.8,31.1,27.3,0000.0,0011.30,0006.08,0005.02
2022-08-05 20:50:00,,0825.7,5.00,0.00,29.2,28.0,00.0,37.9,31.1,27.5,0000.0,0011.71,0006.11,0005.03
2022-08-05 20:51:00,,0825.7,5.00,0.00,29.2,27.6,00.0,37.8,31.1,27.3,0000.0,0012.16,0006.16,0005.05
2022-08-05 20:52:00,,0825.7,5.01,0.00,29.1,27.1,00.0,37.8,31.0,27.3,0000.0,0012.06,0006.20,0005.08
2022-08-05 20:53:00,,0825.7,5.00,0.00,29.1,26.9,00.0,37.8,30.9,27.7,0000.0,0011.93,0006.21,0005.09
2022-08-05 20:54:00,,0825.7,5.01,0.00,29.0,27.0,00.0,37.8,30.8,26.9,0000.0,0011.87,0006.19,0005.09
2022-08-05 20:55:00,,0825.7,5.00,0.00,29.0,27.1,00.0,37.8,30.8,27.1,0000.0,0011.65,0006.14,0005.07
2022-08-05 20:56:00,,0825.7,5.01,0.00,29.0,27.3,00.0,37.8,30.9,27.0,0000.0,0011.43,0006.08,0005.03
2022-08-05 20:57:00,,0825.9,4.99,0.00,29.1,27.5,00.0,37.8,31.0,27.0,0000.0,0011.94,0006.04,0005.01
2022-08-05 20:58:00,,0825.9,5.00,0.00,29.1,27.7,00.0,37.8,31.1,27.2,0000.0,0012.02,0006.01,0005.01
2022-08-05 20:59:00,,0825.9,4.99,0.00,29.1,27.9,00.0,37.8,31.2,26.9,0000.0,0012.06,0006.00,0005.01
